Hourly Data Report for January 06, 2020

TORONTO CITY
ONTARIO
Current Station Operator: ECCC - MSC

43°40'00.000" N
79°24'00.000" W
112.50 m
6158355
71508
XTO

Download Data

Hourly Data (January 2020)
Hourly Data Report for January 6, 2020
TIME
LST
Temp Definition
°C
Dew Point Definition
°C
Rel Hum Definition
%
Precip. Amount Definition
mm

Wind Dir Definition
10's deg

Wind Spd Definition
km/h
Visibility Definition
km
Stn Press Definition
kPa
Hmdx Definition


Wind Chill Definition


Weather Definition


00:00 0.7 -0.5 92 0.2       99.37     LegendNANA
01:00 1.2 -0.2 90 0.0       99.24     LegendNANA
02:00 1.6 0.0 89 0.0       99.23     LegendNANA
03:00 1.5 -0.5 87 0.0       99.29     LegendNANA
04:00 1.5 -0.2 88 0.0       99.31     LegendNANA
05:00 1.9 -1.2 80 0.0       99.36     LegendNANA
06:00 2.0 -1.5 78 0.0       99.42     LegendNANA
07:00 2.2 -1.7 76 0.2       99.47     LegendNANA
08:00 1.7 -3.1 71 0.0       99.57     LegendNANA
09:00 1.8 -3.3 69 0.0       99.68     LegendNANA
10:00 2.3 -3.3 66 0.0       99.78     LegendNANA
11:00 2.1 -6.3 53 0.0       99.82     LegendNANA
12:00 2.1 -5.7 56 0.0       99.79     LegendNANA
13:00 2.2 -7.4 49 0.0       99.75     LegendNANA
14:00 2.2 -6.3 53 0.0       99.72     LegendNANA
15:00 2.2 -6.4 53 0.0       99.71     LegendNANA
16:00 2.2 -6.2 54 0.0       99.73     LegendNANA
17:00 2.6 -5.9 53 0.0       99.72     LegendNANA
18:00 2.7 -5.8 54 0.0       99.80     LegendNANA
19:00 1.4 -7.7 51 0.0       99.95     LegendNANA
20:00 0.3 -9.2 49 0.0       100.02     LegendNANA
21:00 0.3 -9.1 49 0.0       100.05     LegendNANA
22:00 -0.3 -9.0 51 0.0       100.09     LegendNANA
23:00 -0.8 -9.1 54 0.0       100.11     LegendNANA

Notes on Data Quality.

Legend

  • E = Estimated
  • M = Missing
  • NA = Not Available*
  • [empty] = Indicates an unobserved value
Date modified: